Regional Weather Roundup
Issued by NWS

Home | Current Version | Previous Version | Text Only | Print | Product List | Glossary On
Versions: 1 2 3 4 5 6 7 8 9 10 11 12 13 14 15 16 17 18 19 20 21 22 23 24 25 26 27 28 29 30 31 32 33 34 35 36 37 38 39 40 41 42 43 44 45 46 47 48 49 50
000
ASUS43 KLSX 060207
RWRMO

WEATHER SUMMARY FOR MISSOURI
NATIONAL WEATHER SERVICE SPRINGFIELD MO
800 PM CST THU MAR 05 2015

NOTE: "FAIR" INDICATES FEW OR NO CLOUDS BELOW 12,000 FEET WITH NO
       SIGNIFICANT WEATHER AND/OR OBSTRUCTIONS TO VISIBILITY.
       CURRENT SKY AND/OR WEATHER CONDITIONS ARE NOT AVAILABLE FOR
       CHILLICOTHE AND FARMINGTON.

MOZ001>031-035>038-043-044-053-054-060300-
...NORTHERN AND WESTERN MISSOURI...

CITY           SKY/WX    TMP DP  RH WIND       PRES   REMARKS
KANSAS CTY INT CLEAR     24   6  46 SE8       30.48S WCI  15
KANSAS C DTWN  CLEAR     28   8  43 S6        30.50S WCI  22
LEE`S SUMMIT   CLEAR     27  10  49 S6        30.50S WCI  20
ST JOSEPH      FAIR      22   8  55 SE7       30.48F WCI  13
CHILLICOTHE      N/A     22   8  55 SE5       30.52F WCI  16
KIRKSVILLE     CLEAR     18   6  59 E6        30.52S WCI  10

$$
MOZ066>068-077>081-088>096-101>105-060300-
...SOUTHWEST MISSOURI...

CITY           SKY/WX    TMP DP  RH WIND       PRES   REMARKS
SPRINGFIELD    CLEAR     23  12  62 CALM      30.51R
JOPLIN         FAIR      27  15  61 SE7       30.52R WCI  19

$$
MOZ032>034-039>042-045>050-055>058-069>072-060300-
...CENTRAL MISSOURI...

CITY           SKY/WX    TMP DP  RH WIND       PRES   REMARKS
COLUMBIA       CLEAR     23  10  57 NE3       30.53F
JEFFERSON CITY CLEAR     23   9  55 CALM      30.56S
ROLLA          CLEAR     22   9  57 CALM      30.51R
SEDALIA        CLEAR     24  12  60 SE3       30.54S
WHITEMAN AFB   CLEAR     24   9  52 SE5       30.52S WCI  19
WARRENSBURG    CLEAR     27   9  46 SE5       30.53F WCI  21
OSAGE BEACH    CLEAR     23   9  54 CALM      30.54R

$$
MOZ051-052-059>065-060300-
...EAST CENTRAL MISSOURI...

CITY           SKY/WX    TMP DP  RH WIND       PRES   REMARKS
ST LOUIS INTL  CLEAR     20   4  50 NE7       30.59R WCI  11
SPIRIT OF STL  CLEAR     21   7  54 N3        30.59R
ST CHARLES     CLEAR     17   6  62 NE3       30.60R

$$
MOZ072>076-082>087-097>100-106>115-060300-
...SOUTH CENTRAL AND SOUTHEAST MISSOURI...

CITY           SKY/WX    TMP DP  RH WIND       PRES   REMARKS
CAPE GIRARDEAU PTCLDY    17   7  64 NE7       30.59S WCI   8
FARMINGTON     CLEAR     19  10  68 E3        30.57R
POPLAR BLUFF   PTCLDY    21   8  57 E6        30.58R WCI  13
WEST PLAINS    CLEAR     18   6  59 CALM      30.52R

$$


USA.gov is the U.S. government's official web portal to all federal, state and local government web resources and services.